CW4869 Weather Reports


Display with metric or nautical units.
time (UTC)temp
F
wind
direction
speed
MPH
gust
MPH
rain 1hr
in
rain 24hr
in
rain mn
in
humidity
%
barometer
mb
20260506135032 42 13 3.0 9.0 0.00 0.00 0.00 71 1010.9
20260506134521 42 20 3.0 9.0 0.00 0.00 0.00 70 1010.8
20260506134048 42 329 4.0 9.0 0.00 0.00 0.00 72 1010.8
20260506133537 42 28 4.0 9.0 0.00 0.00 0.00 71 1010.7
20260506133026 42 13 3.0 9.0 0.00 0.00 0.00 71 1010.8
20260506132559 42 330 4.0 9.0 0.00 0.00 0.00 72 1010.7
20260506132032 42 25 6.0 9.0 0.00 0.00 0.00 71 1010.7
20260506131521 42 1 5.0 10.0 0.00 0.00 0.00 71 1010.6
20260506131115 42 13 3.0 12.0 0.00 0.00 0.00 71 1010.5
20260506130529 42 336 5.0 12.0 0.00 0.00 0.00 69 1010.5
20260506130039 43 11 5.0 12.0 0.00 0.00 0.00 69 1010.3
20260506125525 43 11 7.0 12.0 0.00 0.00 0.00 69 1010.4
20260506125036 43 20 6.0 11.0 0.00 0.00 0.00 69 1010.2
20260506124525 42 20 6.0 11.0 0.00 0.00 0.00 70 1010.2
20260506124032 42 18 5.0 10.0 0.00 0.00 0.00 70 1010.1
20260506123541 42 345 5.0 11.0 0.00 0.00 0.00 70 1010.1
20260506123033 42 344 6.0 10.0 0.00 0.00 0.00 69 1010.0
20260506122542 42 49 5.0 10.0 0.00 0.00 0.00 70 1010.0
20260506122054 42 321 3.0 10.0 0.00 0.00 0.00 71 1009.8
20260506121522 42 8 5.0 12.0 0.00 0.00 0.00 70 1009.8
20260506121036 42 4 5.0 12.0 0.00 0.00 0.00 71 1009.8
20260506120522 42 13 5.0 14.0 0.00 0.00 0.00 71 1009.9
20260506120026 41 25 6.0 13.0 0.00 0.00 0.00 71 1010.0
20260506115533 41 63 5.0 13.0 0.00 0.00 0.00 71 1010.0
20260506115040 41 343 4.0 12.0 0.00 0.00 0.00 71 1010.0
20260506114528 41 20 6.0 13.0 0.00 0.00 0.00 72 1010.1
20260506114040 41 25 6.0 13.0 0.00 0.00 0.00 72 1010.0
20260506113544 41 6 5.0 12.0 0.00 0.00 0.00 73 1009.9
20260506113037 41 27 5.0 12.0 0.00 0.00 0.00 73 1009.8
20260506112545 40 23 6.0 13.0 0.00 0.00 0.00 74 1009.7
20260506112036 40 27 5.0 13.0 0.00 0.00 0.00 74 1009.8
20260506111541 40 25 5.0 14.0 0.00 0.00 0.00 76 1009.7
20260506111041 40 340 5.0 14.0 0.00 0.00 0.00 77 1009.4
20260506110544 40 352 5.0 12.0 0.00 0.00 0.00 79 1009.4
20260506110047 40 44 6.0 12.0 0.00 0.00 0.00 81 1009.2
20260506105551 40 20 5.0 10.0 0.00 0.00 0.00 83 1009.0
20260506105037 40 21 5.0 9.0 0.00 0.00 0.00 83 1008.9
20260506104544 40 356 4.0 9.0 0.00 0.00 0.00 83 1008.8
20260506104034 40 4 5.0 12.0 0.00 0.00 0.00 83 1008.7
20260506103522 40 338 5.0 12.0 0.00 0.00 0.00 83 1008.5
20260506103029 40 18 5.0 12.0 0.00 0.00 0.00 82 1008.4
20260506102537 40 44 5.0 12.0 0.00 0.00 0.00 82 1008.3
20260506102121 40 300 5.0 11.0 0.00 0.00 0.00 82 1008.3
20260506101528 40 37 4.0 10.0 0.00 0.00 0.00 82 1008.2
20260506101040 40 46 5.0 10.0 0.00 0.00 0.00 81 1008.1
20260506100552 40 39 6.0 10.0 0.00 0.00 0.00 81 1008.2
20260506100028 40 348 4.0 10.0 0.00 0.00 0.00 81 1008.1
20260506095538 40 18 5.0 14.0 0.00 0.00 0.00 81 1007.9
20260506095030 40 8 5.0 14.0 0.00 0.00 0.00 81 1008.1
20260506094534 40 30 5.0 13.0 0.00 0.00 0.00 81 1008.1
20260506094026 41 1 5.0 12.0 0.00 0.00 0.00 81 1008.0
20260506093534 41 33 5.0 12.0 0.00 0.00 0.00 80 1008.0
20260506093029 41 8 5.0 12.0 0.00 0.00 0.00 80 1008.0
20260506092559 41 51 5.0 12.0 0.00 0.00 0.00 81 1008.0
20260506092031 41 49 5.0 14.0 0.00 0.00 0.00 80 1008.1
20260506091540 41 18 5.0 14.0 0.00 0.00 0.00 80 1008.1
20260506091103 41 8 5.0 9.0 0.00 0.00 0.00 79 1008.1
20260506090532 41 9 4.0 11.0 0.00 0.00 0.00 80 1008.2
20260506090049 41 18 4.0 11.0 0.00 0.00 0.00 79 1008.0
20260506085531 41 34 5.0 12.0 0.00 0.00 0.00 78 1008.0
20260506085024 41 35 5.0 14.0 0.00 0.00 0.00 78 1008.1
20260506084532 41 37 7.0 14.0 0.00 0.00 0.00 78 1008.0
20260506084027 41 46 5.0 13.0 0.00 0.00 0.00 78 1008.0
20260506083531 41 16 4.0 13.0 0.00 0.00 0.00 78 1008.0
20260506083024 41 1 6.0 13.0 0.00 0.00 0.00 77 1008.1
20260506082531 41 63 5.0 12.0 0.00 0.00 0.00 77 1008.2
20260506082049 41 56 6.0 11.0 0.00 0.00 0.00 76 1008.1
20260506081531 41 44 4.0 14.0 0.00 0.00 0.00 78 1007.8
20260506081051 41 49 6.0 14.0 0.00 0.00 0.00 77 1007.7
20260506080538 41 96 7.0 14.0 0.00 0.00 0.00 78 1007.6
20260506073527 42 344 4.0 11.0 0.00 0.00 0.00 81 1007.7
20260506073038 42 49 5.0 14.0 0.00 0.00 0.00 81 1007.4
20260506072549 42 100 5.0 14.0 0.00 0.00 0.00 81 1007.5
20260506072042 42 59 7.0 12.0 0.00 0.00 0.00 81 1007.6
20260506071529 43 139 5.0 14.0 0.00 0.00 0.00 81 1007.8
20260506071039 43 23 3.0 13.0 0.00 0.00 0.00 81 1007.8
20260506070528 43 49 4.0 13.0 0.00 0.00 0.00 81 1007.9
20260506062028 43 4 6.0 13.0 0.00 0.00 0.00 76 1007.6
20260506061537 43 28 6.0 13.0 0.00 0.00 0.00 76 1007.6
20260506061029 43 1 6.0 12.0 0.00 0.00 0.00 76 1007.6
20260506060558 44 34 7.0 11.0 0.00 0.00 0.00 76 1007.9
20260506051036 45 74 6.0 10.0 0.00 0.00 0.00 73 1007.7
20260506050541 45 60 3.0 9.0 0.00 0.00 0.00 72 1007.5
20260506045041 45 51 4.0 10.0 0.00 0.00 0.00 73 1007.2
20260506044524 45 49 5.0 12.0 0.00 0.00 0.00 73 1007.3
20260506043538 46 37 4.0 10.0 0.00 0.00 0.00 73 1007.5
20260506043049 46 61 5.0 11.0 0.00 0.00 0.00 73 1007.5
20260506042537 46 89 5.0 11.0 0.00 0.00 0.00 72 1007.5
20260506042031 46 58 5.0 11.0 0.00 0.00 0.00 73 1007.6
20260506041535 46 79 5.0 11.0 0.00 0.00 0.00 73 1007.6
20260506041026 46 66 5.0 10.0 0.00 0.00 0.00 78 1007.5
20260506040536 45 68 3.0 7.0 0.00 0.00 0.00 76 1007.3
20260506040107 45 63 3.0 8.0 0.00 0.00 0.00 75 1007.2
20260506035524 45 30 3.0 11.0 0.00 0.17 0.00 74 1007.2
20260506035037 45 23 4.0 11.0 0.00 0.17 0.00 74 1007.1
20260506034528 45 54 5.0 9.0 0.00 0.17 0.00 74 1007.1
20260506034038 45 41 4.0 9.0 0.00 0.17 0.00 74 1007.1
20260506033552 44 56 3.0 6.0 0.00 0.17 0.00 72 1006.9
20260506033025 44 110 3.0 6.0 0.00 0.17 0.00 72 1006.9
20260506032535 45 56 4.0 9.0 0.00 0.17 0.00 72 1006.7
20260506032048 45 81 6.0 9.0 0.00 0.17 0.00 73 1006.8
20260506031602 45 82 5.0 9.0 0.00 0.17 0.00 74 1006.7
20260506031034 45 95 3.0 11.0 0.00 0.17 0.00 75 1006.6
20260506030539 45 95 7.0 13.0 0.00 0.17 0.00 75 1006.4
20260506030032 45 79 8.0 13.0 0.00 0.17 0.00 77 1006.5
20260506025530 46 89 8.0 14.0 0.00 0.17 0.00 78 1006.4
20260506025037 46 96 7.0 14.0 0.00 0.17 0.00 79 1006.4
20260506024526 46 95 7.0 10.0 0.00 0.17 0.00 80 1006.4
20260506023537 46 66 5.0 11.0 0.00 0.17 0.00 81 1006.4
20260506023029 46 76 5.0 11.0 0.00 0.17 0.00 82 1006.3
20260506022538 46 56 6.0 10.0 0.00 0.17 0.00 83 1006.3
20260506022031 46 60 5.0 9.0 0.00 0.17 0.00 84 1006.3
20260506021536 46 342 4.0 13.0 0.00 0.17 0.00 84 1006.3
20260506021042 46 353 5.0 13.0 0.00 0.17 0.00 85 1006.2
20260506020531 46 58 4.0 10.0 0.00 0.17 0.00 85 1006.1
20260506020041 46 52 4.0 10.0 0.00 0.17 0.00 85 1006.1
20260506015528 46 37 5.0 11.0 0.00 0.17 0.00 86 1006.0
20260506015024 46 56 5.0 11.0 0.00 0.17 0.00 86 1006.0
20260506014537 46 1 3.0 11.0 0.00 0.17 0.00 86 1005.8
20260506014025 46 23 5.0 11.0 0.00 0.17 0.00 85 1005.8
20260506013528 47 40 5.0 12.0 0.00 0.17 0.00 85 1005.7
20260506013039 47 343 6.0 12.0 0.00 0.17 0.00 85 1005.7
20260506012522 47 89 4.0 10.0 0.00 0.17 0.00 84 1005.5
20260506012031 48 23 4.0 10.0 0.00 0.17 0.00 84 1005.4
20260506011522 48 37 6.0 9.0 0.00 0.17 0.00 84 1005.4
20260506011057 48 25 5.0 9.0 0.00 0.17 0.00 83 1005.2
20260506010540 49 37 4.0 8.0 0.00 0.17 0.00 83 1005.2
20260506010029 49 40 3.0 7.0 0.00 0.17 0.00 83 1005.2
20260506005536 49 6 3.0 7.0 0.00 0.17 0.00 83 1005.2
20260506005025 49 46 3.0 7.0 0.00 0.17 0.00 83 1005.0
20260506004536 49 11 4.0 7.0 0.00 0.17 0.00 84 1005.1
20260506004028 49 32 3.0 6.0 0.00 0.17 0.00 84 1005.0
20260506003540 49 16 2.0 9.0 0.00 0.17 0.00 84 1004.9
20260506003029 50 30 4.0 6.0 0.00 0.17 0.00 85 1004.9
20260506002538 50 349 2.0 7.0 0.00 0.17 0.00 85 1004.8
20260506002031 50 1 4.0 7.0 0.00 0.17 0.00 84 1004.8
20260506001601 50 1 1.0 6.0 0.00 0.17 0.00 85 1004.7
20260506001030 50 1 3.0 8.0 0.00 0.17 0.00 83 1004.7
20260506000539 50 1 3.0 8.0 0.00 0.17 0.00 82 1004.5
20260506000033 50 49 3.0 6.0 0.00 0.17 0.00 82 1004.4
20260505235537 50 103 3.0 9.0 0.00 0.17 0.00 82 1004.2
20260505234600 52 314 4.0 9.0 0.00 0.17 0.00 79 1004.1
20260505234030 53 314 4.0 9.0 0.00 0.17 0.00 76 1004.1
20260505233538 54 342 2.0 9.0 0.00 0.17 0.00 73 1004.1
20260505233047 56 9 4.0 9.0 0.00 0.17 0.00 67 1004.1
20260505232532 56 1 3.0 8.0 0.00 0.17 0.00 60 1003.9
20260505232051 57 330 5.0 9.0 0.00 0.17 0.00 56 1003.9
20260505231538 57 306 4.0 18.0 0.00 0.17 0.00 56 1003.9
20260505231026 58 319 11.0 18.0 0.00 0.17 0.00 54 1003.8
20260505230534 58 253 15.0 18.0 0.00 0.17 0.00 59 1003.8
20260505225522 58 245 14.0 18.0 0.00 0.17 0.00 61 1003.8
20260505225038 58 251 16.0 18.0 0.00 0.17 0.00 60 1003.8
20260505224525 58 247 16.0 18.0 0.00 0.17 0.00 59 1003.9
20260505224039 58 251 15.0 18.0 0.00 0.17 0.00 57 1003.9
20260505223523 58 247 15.0 18.0 0.00 0.17 0.00 57 1004.0
20260505223037 58 252 15.0 18.0 0.00 0.17 0.00 55 1004.0
20260505222527 58 251 15.0 18.0 0.00 0.17 0.00 62 1004.0
20260505222037 58 258 15.0 18.0 0.00 0.17 0.00 60 1004.1
20260505221546 58 261 14.0 17.0 0.00 0.17 0.00 58 1004.0
20260505221039 59 248 11.0 16.0 0.00 0.17 0.00 59 1004.2
20260505220530 59 253 13.0 16.0 0.00 0.17 0.00 57 1004.1
20260505220040 59 253 13.0 17.0 0.00 0.17 0.00 58 1004.0
20260505215528 59 253 14.0 18.0 0.00 0.17 0.00 56 1004.1
20260505215034 59 250 14.0 19.0 0.00 0.17 0.00 57 1004.2
20260505214540 59 246 16.0 19.0 0.00 0.17 0.00 61 1004.1
20260505214034 59 257 15.0 19.0 0.00 0.17 0.00 61 1004.0
20260505213608 59 253 13.0 17.0 0.00 0.17 0.00 53 1004.1
20260505213040 60 256 13.0 15.0 0.00 0.17 0.00 53 1004.1
20260505212528 60 247 12.0 15.0 0.00 0.17 0.00 54 1004.2
20260505212039 60 252 11.0 15.0 0.00 0.17 0.00 55 1004.2
20260505211558 60 242 12.0 17.0 0.00 0.17 0.00 55 1004.2
20260505211101 60 250 14.0 17.0 0.00 0.17 0.00 59 1004.2
20260505210527 60 248 15.0 16.0 0.00 0.17 0.00 61 1004.3
20260505205537 60 241 15.0 17.0 0.00 0.17 0.00 61 1004.1
20260505205029 60 249 14.0 17.0 0.00 0.17 0.00 58 1004.0
20260505204535 60 246 15.0 17.0 0.00 0.17 0.00 60 1004.1
20260505204041 60 250 15.0 18.0 0.00 0.17 0.00 62 1004.1
20260505203530 59 238 14.0 18.0 0.00 0.17 0.00 62 1004.1
20260505203057 59 240 14.0 18.0 0.00 0.17 0.00 56 1004.1
20260505202557 59 240 14.0 17.0 0.00 0.17 0.00 56 1004.1
20260505202030 59 233 15.0 18.0 0.00 0.17 0.00 61 1004.0
20260505201539 60 239 15.0 19.0 0.00 0.17 0.00 62 1004.0
20260505201028 59 230 17.0 19.0 0.00 0.17 0.00 61 1004.0
20260505200539 59 238 14.0 18.0 0.00 0.17 0.00 62 1004.0
20260505200034 59 234 13.0 19.0 0.00 0.17 0.00 58 1003.9
20260505195544 59 242 14.0 19.0 0.00 0.17 0.00 57 1003.9
20260505195043 59 241 16.0 19.0 0.00 0.17 0.00 62 1003.9
20260505194530 59 249 14.0 16.0 0.00 0.17 0.00 64 1003.9
20260505194045 58 223 10.0 14.0 0.00 0.17 0.00 61 1003.9
20260505193522 59 225 9.0 17.0 0.00 0.17 0.00 59 1003.9
20260505193100 59 236 14.0 18.0 0.00 0.17 0.00 63 1004.1
20260505192548 59 244 16.0 20.0 0.00 0.17 0.00 62 1004.1
20260505192113 59 244 16.0 20.0 0.00 0.17 0.00 64 1004.1
20260505191528 59 229 11.0 19.0 0.00 0.17 0.00 61 1004.2
20260505191036 59 230 12.0 17.0 0.00 0.17 0.00 64 1004.2
20260505190526 59 223 13.0 19.0 0.00 0.17 0.00 63 1004.1
20260505190053 58 233 16.0 19.0 0.00 0.17 0.00 64 1004.1
20260505185538 58 231 14.0 17.0 0.00 0.17 0.00 66 1004.0
20260505185103 58 227 14.0 20.0 0.00 0.17 0.00 64 1003.9
20260505184533 57 223 14.0 20.0 0.00 0.17 0.00 61 1003.9
20260505184025 57 224 15.0 20.0 0.00 0.17 0.00 66 1003.8
20260505183531 57 205 14.0 18.0 0.00 0.17 0.00 67 1003.7
20260505183043 57 210 14.0 18.0 0.00 0.17 0.00 61 1003.8
20260505182531 57 222 14.0 17.0 0.00 0.17 0.00 65 1003.8
20260505182049 57 218 15.0 17.0 0.00 0.17 0.00 64 1003.8
20260505181558 57 217 14.0 16.0 0.00 0.17 0.00 64 1003.8
20260505181032 57 226 12.0 15.0 0.00 0.17 0.00 67 1003.9
20260505180522 56 217 11.0 18.0 0.00 0.17 0.00 63 1003.9
20260505180032 56 206 14.0 18.0 0.00 0.17 0.00 67 1003.9
20260505175540 56 229 12.0 15.0 0.00 0.17 0.00 64 1003.7
20260505175031 56 223 12.0 15.0 0.00 0.17 0.00 66 1003.6
20260505174559 56 226 12.0 15.0 0.00 0.17 0.00 63 1003.7
20260505174028 56 229 12.0 15.0 0.00 0.17 0.00 65 1003.7
20260505173527 56 225 10.0 14.0 0.00 0.17 0.00 65 1003.8
20260505173049 55 215 11.0 14.0 0.00 0.17 0.00 63 1003.8
20260505172602 55 221 12.0 15.0 0.00 0.17 0.00 63 1003.8
20260505172113 55 218 12.0 16.0 0.00 0.17 0.00 64 1003.8
20260505171541 55 219 12.0 16.0 0.00 0.17 0.00 61 1003.8
20260505171044 56 220 11.0 14.0 0.00 0.17 0.00 66 1003.9
20260505170559 55 224 11.0 15.0 0.00 0.17 0.00 65 1003.9
20260505170057 56 227 12.0 18.0 0.00 0.17 0.00 61 1003.9
20260505165526 57 249 15.0 18.0 0.00 0.17 0.00 67 1003.9
20260505165036 56 245 11.0 15.0 0.00 0.17 0.00 63 1003.8
20260505164522 56 244 12.0 16.0 0.00 0.17 0.00 61 1003.9
20260505164033 56 249 13.0 16.0 0.00 0.17 0.00 60 1003.9
20260505163522 56 247 12.0 15.0 0.00 0.17 0.00 64 1003.9
20260505163035 56 251 13.0 15.0 0.00 0.17 0.00 64 1003.9
20260505162523 55 261 11.0 15.0 0.00 0.17 0.00 65 1004.0
20260505162059 55 254 11.0 14.0 0.00 0.17 0.00 62 1003.9
20260505161525 55 238 11.0 15.0 0.00 0.17 0.00 65 1004.1
20260505161036 55 242 12.0 15.0 0.00 0.17 0.00 65 1004.2
20260505160540 55 246 10.0 15.0 0.00 0.17 0.00 64 1004.2
20260505153030 54 255 11.0 15.0 0.00 0.17 0.00 61 1004.2
20260505152602 53 238 9.0 16.0 0.00 0.17 0.00 58 1004.2
20260505152035 53 259 10.0 16.0 0.00 0.17 0.00 60 1004.2
20260505151547 53 247 11.0 16.0 0.00 0.17 0.00 64 1004.3
20260505151043 53 258 13.0 16.0 0.00 0.17 0.00 63 1004.2
20260505150616 53 249 11.0 15.0 0.00 0.17 0.00 65 1004.2
20260505140540 52 302 4.0 7.0 0.00 0.17 0.00 57 1003.3